Location: Ellerstadt
(49.4644°N, 8.2615°E)
Time: 04:02:36
(UTC+00:00)

SJ 16-02 - Pass Details

Date: 03 March 2021
Orbit: 605 x 617 km, 75.0° (Epoch: 11 April)

Event Time Altitude Azimuth Distance (km) Brightness Sun altitude
Rises 21:12:51 0° 323° (NW) 2,884 5.7 -37.2°
Reaches altitude 10° 21:15:48 10° 303° (WNW) 1,976 4.6 -37.6°
Enters shadow 21:16:38 13° 293° (WNW) 1,794 4.3 -37.7°
